Theta_e
317 316 316 318 318 318 318 316 317 316 316 316 313 312 314 315 315 315 316 314 313 312 311 311 310 308 305 306 306 305 303 301 299 297 294 292 291 291 291 290 290 290 290 290
313 312 313 313 313 312 314 316 316 316 316 313 314 314 315 317 315 315 315 312 311 311 310 309 307 306 307 306 305 302 299 296 293 291 291 291 290 290 290 289 289 289 289 289
313 312 314 316 314 312 310 310 311 312 311 312 313 314 315 316 315 315 312 311 311 310 308 306 307 307 306 304 301 297 293 290 290 290 290 289 289 289 289 288 288 288 288 288
313 314 318 316 312 313 312 313 312 312 312 313 314 314 315 316 316 314 312 310 309 308 306 306 306 305 303 299 295 291 290 290 290 289 289 288 288 288 288 288 287 287 287 287
314 314 314 316 315 316 317 315 313 314 314 315 314 313 313 314 315 314 310 309 307 306 306 306 304 304 300 294 291 290 290 289 289 288 288 288 288 287 287 287 286 286 286 286
306 313 318 315 314 314 312 312 314 315 314 315 314 312 310 312 312 311 309 307 307 306 306 305 303 300 294 290 289 289 289 288 288 287 287 287 287 286 286 286 286 286 286 286
312 312 312 310 312 314 316 311 312 312 312 312 312 312 313 312 310 309 308 308 307 306 306 305 302 295 290 289 288 288 287 287 287 287 286 286 286 286 285 285 285 285 285 286
310 312 312 312 314 316 311 311 311 311 311 310 311 311 311 311 310 310 308 306 306 305 305 303 295 290 288 288 287 287 287 287 287 286 286 285 285 285 285 285 285 285 285 286
311 310 310 313 312 312 312 312 311 311 311 310 310 310 310 309 308 307 306 305 304 304 302 296 289 288 287 287 287 287 287 286 286 286 285 285 284 284 284 284 284 284 285 286
312 311 309 311 311 311 311 311 311 311 310 309 309 308 308 308 307 305 304 302 301 300 294 288 288 287 287 287 286 286 286 286 285 285 285 284 284 284 284 284 284 285 286 286
310 310 310 310 310 310 310 310 310 309 308 309 308 307 306 306 305 304 302 300 298 292 288 288 287 287 287 286 286 286 285 285 285 284 284 284 284 283 284 284 284 285 285 285
310 309 310 310 309 309 309 309 308 308 308 307 306 305 304 303 303 301 299 295 292 288 288 287 287 287 286 286 285 285 285 285 284 284 284 283 283 283 283 284 284 285 285 285
310 310 309 309 309 308 308 307 307 307 306 305 304 303 302 301 300 298 295 289 288 288 287 287 286 287 286 285 285 285 284 284 284 283 283 283 283 283 283 283 283 283 284 284
310 309 308 308 307 307 307 305 304 304 304 302 302 299 299 298 296 291 288 288 288 287 287 286 286 286 285 285 284 284 284 283 283 283 282 282 283 283 283 283 283 282 282 283
308 309 308 307 306 305 303 302 302 302 301 300 299 298 297 294 289 288 288 287 287 287 286 285 285 285 284 284 284 283 283 283 282 282 282 283 283 282 282 282 282 282 282 282
308 308 307 305 301 300 300 300 301 301 300 299 298 296 291 288 288 288 288 287 286 286 286 285 285 284 284 283 283 283 282 282 282 282 282 282 282 282 282 282 282 282 282 282
307 305 302 299 299 300 301 301 300 299 298 298 295 290 288 288 288 287 286 285 285 285 285 284 284 284 283 283 282 282 282 281 282 282 282 282 282 282 282 282 282 282 281 281
300 299 299 299 299 300 300 299 299 299 298 295 289 288 288 287 287 286 286 285 286 286 286 285 284 284 283 282 281 281 281 281 281 282 282 282 282 282 282 281 281 281 281 281
299 299 299 298 299 299 299 300 299 298 293 288 288 287 287 287 286 286 285 285 286 285 285 284 283 283 282 281 281 281 281 281 282 282 282 281 281 281 281 281 281 281 281 280
300 300 298 297 297 299 299 298 296 291 288 287 287 287 287 287 286 286 285 285 286 283 283 283 282 281 281 280 281 281 282 282 281 281 281 281 281 281 281 280 281 280 280 279
300 299 296 296 296 297 296 292 288 287 287 287 287 287 287 286 286 285 285 285 284 283 282 282 281 281 280 280 281 282 281 281 281 281 280 280 280 280 280 279 279 279 279 279
299 299 296 295 295 295 293 290 287 287 287 287 287 287 286 286 285 285 284 283 282 282 281 280 280 280 280 281 281 281 281 280 280 279 279 279 279 278 279 279 279 279 279 279
299 298 297 295 295 294 292 289 288 287 287 287 287 287 286 285 284 283 282 282 281 281 280 280 280 280 280 281 280 280 279 279 279 279 279 278 278 278 279 279 278 278 278 278
298 298 296 294 294 293 293 291 289 287 287 287 287 286 285 284 283 283 282 281 280 280 280 280 280 280 280 280 280 280 279 279 279 279 278 278 278 278 278 278 278 278 278 278
298 297 294 293 294 294 292 290 289 287 287 286 286 285 284 282 281 281 280 280 280 279 279 280 280 280 280 280 280 279 279 279 278 278 278 278 277 277 277 277 277 278 278 278
296 293 292 292 292 291 290 290 288 287 286 285 284 283 282 282 281 280 280 279 279 279 279 280 280 279 279 279 279 279 279 278 278 278 277 277 277 277 277 277 277 277 277 277
293 291 291 291 291 290 289 288 287 285 284 283 282 282 281 280 279 279 279 279 279 279 279 279 279 279 279 279 279 279 279 278 278 276 276 277 277 277 277 277 277 277 277 278
Wind_Speed
3 3 3 4 6 8 7 4 6 1 5 3 6 6 12 15 13 17 21 20 18 15 11 5 5 7 12 16 20 21 22 22 21 22 25 27 29 30 30 31 31 32 34 34
2 4 2 3 5 6 5 4 6 2 11 5 7 6 3 4 12 23 23 21 17 13 9 8 6 10 15 19 21 21 20 20 22 25 27 28 29 29 29 30 30 31 32 33
2 3 5 5 6 5 4 4 5 4 5 4 5 6 7 3 14 22 23 21 18 14 9 4 9 14 17 18 19 17 18 20 22 25 26 27 28 29 29 31 32 33 33 33
2 2 1 1 4 6 5 3 3 4 5 3 4 5 4 1 12 19 22 20 15 8 4 8 14 15 17 17 15 18 21 23 24 25 27 28 29 30 32 32 34 34 34 33
3 2 5 2 3 3 3 2 2 4 1 1 2 4 5 4 11 14 17 15 10 4 7 13 17 19 17 15 18 21 23 24 25 26 28 29 31 32 32 34 35 35 33 33
3 3 5 3 2 2 2 2 3 2 3 3 2 4 4 6 10 15 15 9 4 8 11 18 19 17 16 18 21 22 24 24 25 26 27 29 30 32 34 34 35 34 35 31
3 2 6 5 7 1 4 3 6 10 10 11 2 6 10 9 10 10 7 6 8 12 18 24 21 17 18 20 22 23 24 25 26 26 28 30 32 32 34 35 36 36 36 34
3 2 7 3 0 3 4 5 8 10 9 8 7 7 8 12 13 12 10 9 12 15 21 22 15 17 18 20 22 23 24 26 27 29 30 31 32 34 35 36 36 37 36 34
7 5 1 7 9 10 7 5 1 4 5 5 7 10 12 13 13 11 11 12 12 21 18 12 14 16 19 21 23 25 26 28 30 31 31 32 33 35 36 36 35 36 32 34
1 1 6 9 11 3 2 1 3 3 5 5 8 11 13 15 14 13 12 12 16 13 10 13 15 16 19 22 24 26 29 31 32 33 34 33 34 35 35 34 33 31 33 35
3 6 1 11 3 3 3 5 6 7 8 10 12 11 13 14 12 12 14 12 9 9 13 15 17 18 19 21 24 27 30 32 33 33 33 35 37 37 35 33 26 30 33 34
4 4 3 2 6 8 7 7 7 11 13 13 13 14 14 12 13 12 9 7 9 12 15 17 19 20 22 22 25 28 32 32 31 32 34 38 39 40 36 32 30 27 28 27
4 5 7 5 2 4 8 12 15 14 16 17 16 12 11 13 11 8 7 9 12 15 17 20 22 23 23 24 27 29 30 31 32 33 35 37 37 35 38 42 34 30 27 27
5 3 2 2 9 13 14 14 13 12 12 12 9 7 7 6 7 7 9 11 14 18 19 21 23 24 25 27 29 28 28 28 30 34 35 35 34 33 33 36 37 39 35 30
6 5 4 9 13 15 14 12 11 10 9 7 4 5 6 7 7 8 11 14 17 18 19 21 23 26 27 28 28 29 28 30 31 33 33 30 32 33 33 32 34 36 38 36
6 10 12 14 9 10 13 12 9 8 6 5 6 7 6 7 8 11 13 15 18 20 22 23 25 27 28 28 29 29 30 31 29 31 31 32 31 31 32 33 34 35 35 35
12 13 7 9 12 13 12 9 7 7 8 8 7 7 7 9 11 13 14 16 19 21 23 26 28 29 30 29 29 31 32 33 30 32 29 31 31 31 33 33 32 35 35 35
2 3 7 11 11 10 9 7 6 8 9 8 7 7 8 11 13 14 16 19 22 25 26 27 29 31 31 30 30 31 31 32 30 30 32 32 30 31 32 33 34 34 35 35
5 10 13 12 11 9 8 7 7 9 9 8 8 8 10 12 15 17 20 23 27 30 28 28 29 30 31 30 29 30 29 30 33 34 32 30 34 32 35 34 34 33 32 33
9 14 15 14 12 10 9 8 9 10 9 9 9 11 12 14 18 21 23 26 27 26 29 30 31 32 31 31 30 27 31 33 33 32 32 31 33 34 32 32 30 31 33 32
13 16 17 15 13 12 10 10 11 11 10 11 12 14 16 18 20 22 26 29 27 27 29 31 31 31 32 31 29 32 34 35 34 33 33 33 33 32 31 31 32 30 31 30
14 16 18 17 16 15 13 12 13 13 13 14 15 17 19 21 23 25 24 27 30 30 31 32 31 30 29 28 31 34 36 34 34 33 31 31 30 31 31 30 31 31 30 31
16 17 18 19 18 15 14 15 16 16 17 17 18 19 21 23 24 27 30 28 29 30 30 30 29 29 28 29 33 34 32 30 30 30 31 31 30 29 32 33 31 29 30 29
17 18 20 19 17 17 17 15 16 17 18 19 20 20 22 25 26 25 27 29 29 29 29 29 29 29 28 31 30 30 30 30 30 31 29 29 32 33 31 30 31 29 29 27
17 19 20 19 18 17 15 15 17 18 19 19 20 20 22 22 26 28 28 28 28 28 30 30 29 29 28 29 30 30 30 31 31 28 30 31 29 30 30 30 30 27 26 26
18 17 14 13 13 14 15 16 15 15 17 19 19 21 22 24 25 27 28 27 29 29 30 30 30 29 29 29 30 31 32 32 31 31 28 29 30 31 29 28 27 25 24 23
15 12 11 11 12 12 12 12 13 13 16 19 22 22 23 25 26 26 26 28 28 29 29 29 30 29 29 31 32 33 33 33 32 31 29 31 31 30 28 26 24 23 22 20
Wind_Direction
89 111 117 182 183 191 191 181 190 194 205 218 245 241 249 264 240 186 182 184 194 200 198 210 262 299 324 326 326 324 324 326 330 330 329 330 329 330 330 330 329 327 326 323
44 13 54 253 254 240 223 214 268 348 294 202 276 314 281 267 179 181 187 188 193 198 209 239 288 326 325 325 322 322 323 326 328 328 331 332 333 335 336 334 334 332 331 327
215 337 323 283 212 211 180 176 170 214 244 24 342 33 47 229 193 191 189 197 203 210 222 289 321 324 322 318 319 320 323 326 328 331 333 336 338 338 338 336 334 332 330 328
170 2 291 225 302 208 162 118 232 330 322 350 79 94 28 4 209 202 202 200 198 206 255 313 324 323 317 316 318 322 325 328 332 335 336 337 338 338 336 334 331 328 328 327
141 204 300 82 346 120 152 47 33 108 29 48 117 164 323 264 231 220 203 199 203 230 313 324 327 323 315 312 316 320 326 330 334 336 335 335 335 333 332 330 328 330 328 327
76 147 218 221 245 273 105 150 357 321 18 305 333 351 264 206 201 200 200 198 251 294 318 328 321 315 312 316 321 325 328 330 332 332 332 330 330 331 331 329 328 329 328 329
158 229 293 249 257 203 118 216 41 58 31 15 331 272 304 215 214 219 217 247 283 307 316 319 308 304 312 320 324 326 326 327 329 330 329 330 330 331 331 330 331 331 329 331
111 167 263 322 12 176 160 98 65 49 30 7 334 290 260 244 230 225 235 259 292 300 313 307 302 310 318 322 324 324 324 325 327 328 330 330 331 333 332 331 332 331 331 326
180 212 164 68 109 111 104 114 89 321 309 304 276 270 266 232 227 238 256 277 297 310 305 297 301 316 323 324 325 324 323 325 326 327 329 333 333 332 332 332 331 330 325 322
121 146 141 132 137 140 175 247 256 277 298 262 275 275 261 247 255 259 267 288 309 302 299 305 314 321 322 324 324 322 322 323 326 328 330 331 332 332 329 328 328 325 320 319
264 289 81 155 154 158 230 258 297 264 249 288 300 289 274 264 254 265 284 299 293 296 304 310 315 318 323 325 322 320 320 323 325 325 327 329 330 329 326 324 320 319 318 319
232 246 165 270 343 322 303 279 280 268 281 282 276 267 265 258 268 280 281 278 292 299 304 313 317 321 327 324 320 321 321 322 323 323 327 328 327 324 322 324 322 320 318 319
191 196 310 310 330 323 309 304 296 273 259 262 260 263 274 280 279 271 277 289 298 307 315 319 319 321 325 321 320 319 319 319 319 323 324 323 323 324 323 326 325 325 325 325
265 189 176 265 314 304 286 278 273 265 257 257 255 244 274 262 254 267 286 302 310 313 315 315 316 321 323 319 316 316 316 316 318 320 320 323 323 320 317 319 321 325 333 328
212 231 271 294 290 281 284 292 287 290 294 284 256 240 243 247 263 286 303 307 305 308 312 313 318 320 319 318 318 318 318 319 321 320 318 317 316 320 319 318 316 321 325 329
233 272 283 288 284 301 310 313 298 299 291 262 247 240 250 271 289 297 303 309 309 312 316 317 318 321 321 320 318 317 318 320 318 317 318 319 320 318 315 315 318 321 319 320
250 267 251 303 320 321 316 301 282 291 272 257 246 248 269 285 297 305 307 307 306 310 318 323 320 319 317 318 318 317 317 318 320 317 323 323 316 311 315 316 314 314 319 324
223 301 316 313 309 303 302 276 258 250 247 233 233 254 275 291 300 302 306 311 315 316 322 318 316 316 316 317 317 317 318 318 321 321 321 319 314 314 311 314 316 316 317 321
3 329 317 310 301 285 275 264 243 240 226 230 248 271 288 295 300 308 314 315 317 318 321 317 315 313 315 318 319 316 317 320 321 321 317 313 314 315 314 313 314 315 314 315
329 314 305 300 291 277 269 257 234 220 225 241 261 275 283 295 304 310 311 312 317 318 315 316 317 317 319 320 322 321 320 318 315 311 311 310 308 311 311 311 311 311 314 318
305 301 298 293 285 275 263 246 230 230 242 256 272 285 295 302 306 308 309 310 318 315 313 314 316 321 321 321 323 314 311 312 312 312 310 309 309 309 308 307 310 316 319 321
289 295 292 287 278 270 261 250 244 250 262 274 283 290 295 301 304 305 306 309 314 315 316 317 320 319 316 315 310 308 309 310 311 312 312 312 311 311 312 315 317 319 321 322
286 294 291 283 277 273 263 258 261 267 273 278 283 289 294 300 306 308 309 314 312 315 314 313 316 316 313 309 306 309 310 312 315 317 316 314 314 314 315 315 317 315 317 319
281 293 291 284 271 263 263 270 269 270 272 277 283 290 297 302 301 304 305 309 311 312 314 314 315 316 313 308 311 314 317 319 318 316 317 316 313 312 311 312 314 315 316 318
286 292 284 275 267 267 268 267 268 271 275 277 284 291 296 299 301 308 308 311 313 314 315 317 316 315 314 316 317 317 318 319 319 314 306 305 308 311 312 313 313 314 313 310
298 286 274 265 259 258 262 267 269 270 276 283 289 295 299 302 303 307 311 315 316 315 313 315 317 320 319 318 318 319 319 317 317 316 312 311 311 311 311 310 310 311 313 313
287 269 262 260 260 261 263 265 270 276 284 292 298 302 305 309 310 311 313 314 314 315 316 319 320 321 321 320 320 320 319 319 319 314 308 308 310 311 311 311 309 308 307 305